This is the latest recevied weather packets stored in our database for station/object IW2LSY-11. If no packets are shown the sender has not sent any weather packets the latest 10 day(s).
| Time | Temp. | Humidity | Pressure | Rain* | Wind** | Luminosity | Snow |
|---|---|---|---|---|---|---|---|
| 1777748414 | 17.78° C | 45% | 1020.7 hPa | - | - | 488 W/m² | - |
| 1777747815 | 18.33° C | 45% | 1020.5 hPa | - | - | 489 W/m² | - |
| 1777747204 | 18.89° C | 43% | 1020.3 hPa | - | - | 490 W/m² | - |
| 1777746615 | 20° C | 42% | 1020.1 hPa | - | - | 490 W/m² | - |
| 1777746014 | 20.56° C | 41% | 1019.9 hPa | - | - | 491 W/m² | - |
| 1777745414 | 20° C | 41% | 1019.8 hPa | - | - | 491 W/m² | - |
| 1777744814 | 21.11° C | 40% | 1019.6 hPa | - | - | 491 W/m² | - |
| 1777744214 | 21.67° C | 33% | 1019.4 hPa | - | - | 493 W/m² | - |
| 1777743614 | 22.22° C | 35% | 1019.4 hPa | - | - | 494 W/m² | - |
| 1777743014 | 22.22° C | 34% | 1019.3 hPa | - | - | 495 W/m² | - |
| 1777742414 | 22.22° C | 32% | 1019.2 hPa | - | - | 496 W/m² | - |
| 1777741814 | 22.78° C | 32% | 1019.1 hPa | - | - | 498 W/m² | - |
| 1777741214 | 22.78° C | 30% | 1019.1 hPa | - | - | 499 W/m² | - |
| 1777740614 | 23.89° C | 30% | 1019.2 hPa | - | - | 500 W/m² | - |
| 1777740014 | 23.89° C | 29% | 1019.2 hPa | - | - | 501 W/m² | - |
| 1777739414 | 23.89° C | 29% | 1019.2 hPa | - | - | 501 W/m² | - |
| 1777738814 | 23.89° C | 29% | 1019.3 hPa | - | - | 502 W/m² | - |
| 1777738214 | 24.44° C | 28% | 1019.3 hPa | - | - | 503 W/m² | - |
| 1777737614 | 25° C | 28% | 1019.3 hPa | - | - | 501 W/m² | - |
| 1777737014 | 25° C | 28% | 1019.4 hPa | - | - | 505 W/m² | - |
| 1777736404 | 24.44° C | 28% | 1019.5 hPa | - | - | 505 W/m² | - |
| 1777735814 | 25° C | 27% | 1019.5 hPa | - | - | 508 W/m² | - |
| 1777735214 | 25° C | 28% | 1019.6 hPa | - | - | 508 W/m² | - |
| 1777734615 | 25° C | 27% | 1019.7 hPa | - | - | 510 W/m² | - |
| 1777734014 | 23.89° C | 28% | 1019.8 hPa | - | - | 509 W/m² | - |
* Rain since midnight (hover to see other rain measurements)
** Current wind speed in m/s (hover to see current wind gust speed)